| time (UTC) | temp F | wind direction | speed MPH | gust MPH | rain 1hr in | rain 24hr in | rain mn in | humidity % | barometer mb |
| 20260508205010 | 101 | 197 | 4.0 | 8.0 | 0.00 | 0.00 | 0.00 | 38 | 1012.0 |
| 20260508204510 | 101 | 171 | 4.0 | 8.0 | 0.00 | 0.00 | 0.00 | 38 | 1012.0 |
| 20260508204005 | 101 | 179 | 2.0 | 7.0 | 0.00 | 0.00 | 0.00 | 37 | 1012.2 |
| 20260508203508 | 100 | 176 | 2.0 | 7.0 | 0.00 | 0.00 | 0.00 | 39 | 1012.3 |
| 20260508202005 | 101 | 211 | 3.0 | 12.0 | 0.00 | 0.00 | 0.00 | 37 | 1012.6 |
| 20260508201508 | 101 | 265 | 5.0 | 12.0 | 0.00 | 0.00 | 0.00 | 39 | 1012.5 |
| 20260508201005 | 101 | 352 | 2.0 | 9.0 | 0.00 | 0.00 | 0.00 | 37 | 1012.5 |
| 20260508200504 | 101 | 246 | 4.0 | 9.0 | 0.00 | 0.00 | 0.00 | 40 | 1012.5 |
| 20260508200019 | 100 | 223 | 2.0 | 7.0 | 0.00 | 0.00 | 0.00 | 39 | 1012.7 |
| 20260508195504 | 100 | 180 | 1.0 | 7.0 | 0.00 | 0.00 | 0.00 | 39 | 1012.7 |
| 20260508195005 | 99 | 19 | 1.0 | 5.0 | 0.00 | 0.00 | 0.00 | 40 | 1012.8 |
| 20260508194514 | 98 | 143 | 1.0 | 6.0 | 0.00 | 0.00 | 0.00 | 41 | 1012.9 |
| 20260508194004 | 97 | 51 | 1.0 | 8.0 | 0.00 | 0.00 | 0.00 | 39 | 1013.0 |
| 20260508193505 | 98 | 261 | 2.0 | 8.0 | 0.00 | 0.00 | 0.00 | 39 | 1013.1 |
| 20260508193019 | 97 | 49 | 2.0 | 7.0 | 0.00 | 0.00 | 0.00 | 44 | 1013.1 |
| 20260508192512 | 95 | 82 | 2.0 | 7.0 | 0.00 | 0.00 | 0.00 | 46 | 1013.2 |
| 20260508190505 | 97 | 217 | 4.0 | 9.0 | 0.00 | 0.00 | 0.00 | 41 | 1013.6 |
| 20260508190009 | 97 | 244 | 2.0 | 9.0 | 0.00 | 0.00 | 0.00 | 45 | 1013.7 |
| 20260508185504 | 96 | 17 | 4.0 | 9.0 | 0.00 | 0.00 | 0.00 | 44 | 1013.8 |
| 20260508185004 | 96 | 295 | 1.0 | 9.0 | 0.00 | 0.00 | 0.00 | 42 | 1013.9 |
| 20260508184508 | 96 | 290 | 5.0 | 9.0 | 0.00 | 0.00 | 0.00 | 44 | 1014.0 |
| 20260508184004 | 95 | 329 | 2.0 | 8.0 | 0.00 | 0.00 | 0.00 | 45 | 1014.2 |
| 20260508183506 | 95 | 281 | 3.0 | 9.0 | 0.00 | 0.00 | 0.00 | 42 | 1014.4 |
| 20260508183022 | 96 | 9 | 1.0 | 9.0 | 0.00 | 0.00 | 0.00 | 43 | 1014.4 |
| 20260508182508 | 97 | 296 | 3.0 | 9.0 | 0.00 | 0.00 | 0.00 | 42 | 1014.5 |
| 20260508182005 | 96 | 224 | 2.0 | 8.0 | 0.00 | 0.00 | 0.00 | 45 | 1014.5 |
| 20260508181527 | 96 | 315 | 2.0 | 7.0 | 0.00 | 0.00 | 0.00 | 45 | 1014.7 |
| 20260508175005 | 96 | 254 | 3.0 | 9.0 | 0.00 | 0.00 | 0.00 | 47 | 1015.1 |
| 20260508174513 | 95 | 261 | 3.0 | 10.0 | 0.00 | 0.00 | 0.00 | 46 | 1015.1 |
| 20260508174006 | 95 | 244 | 4.0 | 10.0 | 0.00 | 0.00 | 0.00 | 47 | 1015.0 |
| 20260508173504 | 95 | 300 | 3.0 | 9.0 | 0.00 | 0.00 | 0.00 | 47 | 1015.0 |
| 20260508173032 | 94 | 229 | 3.0 | 8.0 | 0.00 | 0.00 | 0.00 | 47 | 1015.2 |
| 20260508172506 | 94 | 352 | 3.0 | 8.0 | 0.00 | 0.00 | 0.00 | 45 | 1015.3 |
| 20260508172007 | 94 | 240 | 0.0 | 7.0 | 0.00 | 0.00 | 0.00 | 50 | 1015.3 |
| 20260508171526 | 93 | 187 | 2.0 | 9.0 | 0.00 | 0.00 | 0.00 | 50 | 1015.4 |
| 20260508171007 | 93 | 310 | 1.0 | 9.0 | 0.00 | 0.00 | 0.00 | 48 | 1015.6 |
| 20260508170507 | 93 | 286 | 3.0 | 9.0 | 0.00 | 0.00 | 0.00 | 49 | 1015.6 |
| 20260508170027 | 93 | 321 | 4.0 | 9.0 | 0.00 | 0.00 | 0.00 | 51 | 1015.6 |
| 20260508165509 | 92 | 263 | 1.0 | 10.0 | 0.00 | 0.00 | 0.00 | 56 | 1015.6 |
| 20260508165009 | 92 | 281 | 3.0 | 10.0 | 0.00 | 0.00 | 0.00 | 49 | 1015.8 |
| 20260508164523 | 92 | 253 | 3.0 | 12.0 | 0.00 | 0.00 | 0.00 | 54 | 1016.0 |
| 20260508164009 | 91 | 282 | 5.0 | 12.0 | 0.00 | 0.00 | 0.00 | 51 | 1016.0 |
| 20260508163511 | 92 | 271 | 3.0 | 13.0 | 0.00 | 0.00 | 0.00 | 50 | 1016.0 |
| 20260508163022 | 91 | 334 | 4.0 | 13.0 | 0.00 | 0.00 | 0.00 | 49 | 1016.2 |
| 20260508162505 | 91 | 319 | 2.0 | 9.0 | 0.00 | 0.00 | 0.00 | 51 | 1016.3 |
| 20260508162007 | 91 | 315 | 3.0 | 9.0 | 0.00 | 0.00 | 0.00 | 52 | 1016.4 |
| 20260508161527 | 90 | 326 | 2.0 | 11.0 | 0.00 | 0.00 | 0.00 | 56 | 1016.5 |
| 20260508161007 | 90 | 322 | 5.0 | 11.0 | 0.00 | 0.00 | 0.00 | 54 | 1016.5 |
| 20260508160508 | 90 | 232 | 3.0 | 8.0 | 0.00 | 0.00 | 0.00 | 56 | 1016.5 |
| 20260508160028 | 90 | 351 | 2.0 | 8.0 | 0.00 | 0.00 | 0.00 | 56 | 1016.5 |
| 20260508155506 | 89 | 225 | 2.0 | 11.0 | 0.00 | 0.00 | 0.00 | 57 | 1016.7 |
| 20260508155011 | 89 | 285 | 2.0 | 11.0 | 0.00 | 0.00 | 0.00 | 55 | 1016.7 |
| 20260508154526 | 89 | 292 | 2.0 | 8.0 | 0.00 | 0.00 | 0.00 | 57 | 1016.7 |
| 20260508154006 | 88 | 232 | 1.0 | 10.0 | 0.00 | 0.00 | 0.00 | 59 | 1016.8 |
| 20260508153510 | 88 | 10 | 4.0 | 10.0 | 0.00 | 0.00 | 0.00 | 59 | 1017.0 |
| 20260508153037 | 87 | 352 | 3.0 | 11.0 | 0.00 | 0.00 | 0.00 | 61 | 1017.0 |
| 20260508152514 | 87 | 335 | 1.0 | 11.0 | 0.00 | 0.00 | 0.00 | 58 | 1017.0 |
| 20260508152007 | 88 | 242 | 4.0 | 10.0 | 0.00 | 0.00 | 0.00 | 59 | 1017.0 |
| 20260508151524 | 87 | 262 | 4.0 | 9.0 | 0.00 | 0.00 | 0.00 | 63 | 1017.1 |
| 20260508151011 | 86 | 360 | 1.0 | 9.0 | 0.00 | 0.00 | 0.00 | 64 | 1017.1 |
| 20260508150510 | 85 | 36 | 3.0 | 9.0 | 0.00 | 0.00 | 0.00 | 66 | 1017.1 |
| 20260508150021 | 85 | 300 | 3.0 | 9.0 | 0.00 | 0.00 | 0.00 | 64 | 1016.9 |
| 20260508145507 | 85 | 278 | 3.0 | 9.0 | 0.00 | 0.00 | 0.00 | 66 | 1017.0 |
| 20260508145011 | 85 | 69 | 1.0 | 10.0 | 0.00 | 0.00 | 0.00 | 67 | 1017.1 |
| 20260508144521 | 84 | 321 | 6.0 | 10.0 | 0.00 | 0.00 | 0.00 | 68 | 1017.1 |
| 20260508144004 | 84 | 346 | 4.0 | 9.0 | 0.00 | 0.00 | 0.00 | 68 | 1017.1 |
| 20260508143505 | 83 | 306 | 3.0 | 8.0 | 0.00 | 0.00 | 0.00 | 70 | 1017.2 |
| 20260508142505 | 83 | 352 | 2.0 | 7.0 | 0.00 | 0.00 | 0.00 | 74 | 1017.3 |
| 20260508142004 | 82 | 267 | 2.0 | 7.0 | 0.00 | 0.00 | 0.00 | 75 | 1017.3 |
| 20260508141516 | 81 | 360 | 3.0 | 8.0 | 0.00 | 0.00 | 0.00 | 75 | 1017.3 |
| 20260508141005 | 82 | 312 | 1.0 | 8.0 | 0.00 | 0.00 | 0.00 | 75 | 1017.3 |
| 20260508140013 | 82 | 277 | 4.0 | 10.0 | 0.00 | 0.00 | 0.00 | 76 | 1017.4 |
| 20260508135508 | 82 | 315 | 4.0 | 11.0 | 0.00 | 0.00 | 0.00 | 76 | 1017.4 |
| 20260508134503 | 80 | 331 | 3.0 | 10.0 | 0.00 | 0.00 | 0.00 | 80 | 1017.3 |
| 20260508134004 | 80 | 290 | 3.0 | 10.0 | 0.00 | 0.00 | 0.00 | 80 | 1017.2 |
| 20260508133507 | 79 | 294 | 2.0 | 10.0 | 0.00 | 0.00 | 0.00 | 82 | 1017.2 |
| 20260508133010 | 79 | 333 | 4.0 | 9.0 | 0.00 | 0.00 | 0.00 | 83 | 1017.1 |
| 20260508132505 | 79 | 338 | 4.0 | 9.0 | 0.00 | 0.00 | 0.00 | 82 | 1017.1 |
| 20260508132004 | 78 | 332 | 3.0 | 9.0 | 0.00 | 0.00 | 0.00 | 83 | 1017.2 |
| 20260508131516 | 78 | 319 | 2.0 | 5.0 | 0.00 | 0.00 | 0.00 | 84 | 1017.1 |
| 20260508131004 | 78 | 305 | 2.0 | 8.0 | 0.00 | 0.00 | 0.00 | 87 | 1017.1 |
| 20260508130024 | 77 | 306 | 2.0 | 8.0 | 0.00 | 0.00 | 0.00 | 87 | 1017.2 |
| 20260508125503 | 77 | 330 | 2.0 | 7.0 | 0.00 | 0.00 | 0.00 | 88 | 1017.1 |
| 20260508125009 | 77 | 284 | 2.0 | 8.0 | 0.00 | 0.00 | 0.00 | 88 | 1017.1 |
| 20260508124520 | 77 | 263 | 3.0 | 8.0 | 0.00 | 0.00 | 0.00 | 90 | 1017.0 |
| 20260508124009 | 76 | 288 | 1.0 | 6.0 | 0.00 | 0.00 | 0.00 | 91 | 1017.0 |
| 20260508123503 | 75 | 329 | 2.0 | 7.0 | 0.00 | 0.00 | 0.00 | 93 | 1017.0 |
| 20260508123010 | 74 | 271 | 2.0 | 7.0 | 0.00 | 0.00 | 0.00 | 95 | 1017.0 |
| 20260508122503 | 74 | 300 | 1.0 | 6.0 | 0.00 | 0.00 | 0.00 | 97 | 1016.8 |
| 20260508122006 | 73 | 306 | 0.0 | 4.0 | 0.00 | 0.00 | 0.00 | 97 | 1016.8 |
| 20260508121515 | 73 | 308 | 1.0 | 4.0 | 0.00 | 0.00 | 0.00 | 97 | 1016.8 |
| 20260508121003 | 72 | 309 | 1.0 | 4.0 | 0.00 | 0.00 | 0.00 | 97 | 1016.7 |
| 20260508120507 | 72 | 286 | 1.0 | 4.0 | 0.00 | 0.00 | 0.00 | 97 | 1016.5 |
| 20260508120012 | 71 | 269 | 0.0 | 3.0 | 0.00 | 0.00 | 0.00 | 97 | 1016.4 |
| 20260508115509 | 70 | 271 | 0.0 | 3.0 | 0.00 | 0.00 | 0.00 | 96 | 1016.5 |
| 20260508114511 | 69 | 271 | 0.0 | 0.0 | 0.00 | 0.00 | 0.00 | 96 | 1016.3 |
| 20260508114008 | 68 | 271 | 0.0 | 0.0 | 0.00 | 0.00 | 0.00 | 96 | 1016.2 |
| 20260508113507 | 68 | 271 | 0.0 | 0.0 | 0.00 | 0.00 | 0.00 | 96 | 1016.2 |
| 20260508113022 | 67 | 271 | 0.0 | 0.0 | 0.00 | 0.00 | 0.00 | 96 | 1016.1 |
| 20260508112508 | 67 | 271 | 0.0 | 0.0 | 0.00 | 0.00 | 0.00 | 96 | 1016.1 |
| 20260508112007 | 67 | 271 | 0.0 | 0.0 | 0.00 | 0.00 | 0.00 | 96 | 1015.9 |
| 20260508111521 | 66 | 271 | 0.0 | 0.0 | 0.00 | 0.00 | 0.00 | 95 | 1015.9 |
| 20260508111011 | 66 | 271 | 0.0 | 0.0 | 0.00 | 0.00 | 0.00 | 95 | 1015.8 |
| 20260508110509 | 66 | 271 | 0.0 | 0.0 | 0.00 | 0.00 | 0.00 | 95 | 1015.9 |
| 20260508110020 | 66 | 271 | 0.0 | 0.0 | 0.00 | 0.00 | 0.00 | 95 | 1015.8 |
| 20260508105509 | 66 | 271 | 0.0 | 0.0 | 0.00 | 0.00 | 0.00 | 94 | 1015.7 |
| 20260508105009 | 66 | 271 | 0.0 | 0.0 | 0.00 | 0.00 | 0.00 | 94 | 1015.6 |
| 20260508104521 | 66 | 271 | 0.0 | 0.0 | 0.00 | 0.00 | 0.00 | 95 | 1015.5 |
| 20260508104011 | 66 | 271 | 0.0 | 0.0 | 0.00 | 0.00 | 0.00 | 95 | 1015.4 |
| 20260508103507 | 66 | 271 | 0.0 | 0.0 | 0.00 | 0.00 | 0.00 | 95 | 1015.5 |
| 20260508103021 | 66 | 271 | 0.0 | 0.0 | 0.00 | 0.00 | 0.00 | 94 | 1015.5 |
| 20260508102010 | 66 | 271 | 0.0 | 0.0 | 0.00 | 0.00 | 0.00 | 94 | 1015.3 |
| 20260508101524 | 65 | 271 | 0.0 | 0.0 | 0.00 | 0.00 | 0.00 | 94 | 1015.2 |
| 20260508101008 | 65 | 271 | 0.0 | 0.0 | 0.00 | 0.00 | 0.00 | 94 | 1015.2 |
| 20260508100026 | 65 | 271 | 0.0 | 0.0 | 0.00 | 0.00 | 0.00 | 93 | 1015.1 |
| 20260508095510 | 65 | 271 | 0.0 | 0.0 | 0.00 | 0.00 | 0.00 | 94 | 1015.0 |
| 20260508095006 | 66 | 271 | 0.0 | 0.0 | 0.00 | 0.00 | 0.00 | 94 | 1015.0 |
| 20260508094524 | 66 | 271 | 0.0 | 0.0 | 0.00 | 0.00 | 0.00 | 94 | 1015.0 |
| 20260508094008 | 66 | 271 | 0.0 | 0.0 | 0.00 | 0.00 | 0.00 | 94 | 1014.9 |
| 20260508093507 | 66 | 271 | 0.0 | 0.0 | 0.00 | 0.00 | 0.00 | 94 | 1014.8 |
| 20260508093024 | 66 | 271 | 0.0 | 0.0 | 0.00 | 0.00 | 0.00 | 94 | 1014.9 |
| 20260508092508 | 65 | 271 | 0.0 | 0.0 | 0.00 | 0.00 | 0.00 | 93 | 1014.8 |
| 20260508092010 | 66 | 271 | 0.0 | 0.0 | 0.00 | 0.00 | 0.00 | 93 | 1014.7 |
| 20260508091007 | 66 | 271 | 0.0 | 0.0 | 0.00 | 0.00 | 0.00 | 93 | 1014.7 |
| 20260508090508 | 66 | 271 | 0.0 | 0.0 | 0.00 | 0.00 | 0.00 | 93 | 1014.7 |
| 20260508090029 | 66 | 271 | 0.0 | 0.0 | 0.00 | 0.00 | 0.00 | 93 | 1014.6 |
| 20260508085508 | 66 | 271 | 0.0 | 0.0 | 0.00 | 0.00 | 0.00 | 93 | 1014.6 |
| 20260508085007 | 66 | 271 | 0.0 | 0.0 | 0.00 | 0.00 | 0.00 | 93 | 1014.6 |
| 20260508084528 | 66 | 271 | 0.0 | 0.0 | 0.00 | 0.00 | 0.00 | 93 | 1014.6 |
| 20260508084009 | 66 | 271 | 0.0 | 0.0 | 0.00 | 0.00 | 0.00 | 93 | 1014.6 |
| 20260508083504 | 66 | 271 | 0.0 | 0.0 | 0.00 | 0.00 | 0.00 | 92 | 1014.6 |
| 20260508083011 | 66 | 271 | 0.0 | 0.0 | 0.00 | 0.00 | 0.00 | 93 | 1014.6 |
| 20260508082508 | 66 | 271 | 0.0 | 0.0 | 0.00 | 0.00 | 0.00 | 93 | 1014.5 |
| 20260508082012 | 66 | 271 | 0.0 | 0.0 | 0.00 | 0.00 | 0.00 | 92 | 1014.5 |
| 20260508081507 | 66 | 271 | 0.0 | 0.0 | 0.00 | 0.00 | 0.00 | 92 | 1014.4 |
| 20260508081004 | 66 | 271 | 0.0 | 0.0 | 0.00 | 0.00 | 0.00 | 92 | 1014.5 |
| 20260508080510 | 66 | 271 | 0.0 | 0.0 | 0.00 | 0.00 | 0.00 | 92 | 1014.6 |
| 20260508080007 | 67 | 271 | 0.0 | 0.0 | 0.00 | 0.00 | 0.00 | 92 | 1014.5 |
| 20260508075504 | 67 | 271 | 0.0 | 0.0 | 0.00 | 0.00 | 0.00 | 92 | 1014.5 |
| 20260508075007 | 66 | 271 | 0.0 | 0.0 | 0.00 | 0.00 | 0.00 | 92 | 1014.7 |
| 20260508074510 | 67 | 271 | 0.0 | 0.0 | 0.00 | 0.00 | 0.00 | 92 | 1014.6 |
| 20260508073508 | 67 | 271 | 0.0 | 0.0 | 0.00 | 0.00 | 0.00 | 91 | 1014.8 |
| 20260508073016 | 67 | 271 | 0.0 | 0.0 | 0.00 | 0.00 | 0.00 | 92 | 1014.8 |
| 20260508072506 | 67 | 271 | 0.0 | 0.0 | 0.00 | 0.00 | 0.00 | 91 | 1014.9 |
| 20260508072007 | 67 | 271 | 0.0 | 0.0 | 0.00 | 0.00 | 0.00 | 92 | 1014.9 |
| 20260508071525 | 67 | 271 | 0.0 | 0.0 | 0.00 | 0.00 | 0.00 | 91 | 1014.9 |
| 20260508071009 | 67 | 271 | 0.0 | 0.0 | 0.00 | 0.00 | 0.00 | 91 | 1014.9 |
| 20260508070504 | 67 | 271 | 0.0 | 0.0 | 0.00 | 0.00 | 0.00 | 91 | 1014.9 |
| 20260508070014 | 67 | 271 | 0.0 | 0.0 | 0.00 | 0.00 | 0.00 | 91 | 1015.0 |
| 20260508065504 | 67 | 271 | 0.0 | 0.0 | 0.00 | 0.00 | 0.00 | 91 | 1015.1 |
| 20260508065006 | 67 | 271 | 0.0 | 0.0 | 0.00 | 0.00 | 0.00 | 90 | 1014.9 |
| 20260508064512 | 67 | 271 | 0.0 | 0.0 | 0.00 | 0.00 | 0.00 | 90 | 1015.0 |
| 20260508064005 | 67 | 271 | 0.0 | 0.0 | 0.00 | 0.00 | 0.00 | 90 | 1014.9 |
| 20260508063508 | 67 | 271 | 0.0 | 0.0 | 0.00 | 0.00 | 0.00 | 89 | 1015.1 |
| 20260508062507 | 67 | 271 | 0.0 | 0.0 | 0.00 | 0.00 | 0.00 | 88 | 1015.1 |
| 20260508062007 | 67 | 271 | 0.0 | 0.0 | 0.00 | 0.00 | 0.00 | 88 | 1015.2 |
| 20260508061522 | 67 | 271 | 0.0 | 0.0 | 0.00 | 0.00 | 0.00 | 88 | 1015.1 |
| 20260508061004 | 68 | 271 | 0.0 | 0.0 | 0.00 | 0.00 | 0.00 | 87 | 1015.4 |
| 20260508060508 | 68 | 271 | 0.0 | 0.0 | 0.00 | 0.00 | 0.00 | 88 | 1015.4 |
| 20260508060026 | 68 | 271 | 0.0 | 0.0 | 0.00 | 0.00 | 0.00 | 87 | 1015.4 |
| 20260508055503 | 68 | 271 | 0.0 | 0.0 | 0.00 | 0.00 | 0.00 | 86 | 1015.3 |
| 20260508054510 | 69 | 271 | 0.0 | 0.0 | 0.00 | 0.00 | 0.00 | 85 | 1015.4 |
| 20260508054004 | 69 | 271 | 0.0 | 0.0 | 0.00 | 0.00 | 0.00 | 85 | 1015.5 |
| 20260508053507 | 69 | 271 | 0.0 | 0.0 | 0.00 | 0.00 | 0.00 | 85 | 1015.6 |
| 20260508053014 | 69 | 271 | 0.0 | 0.0 | 0.00 | 0.00 | 0.00 | 84 | 1015.7 |
| 20260508052505 | 70 | 271 | 0.0 | 0.0 | 0.00 | 0.00 | 0.00 | 84 | 1015.6 |
| 20260508052007 | 70 | 271 | 0.0 | 0.0 | 0.00 | 0.00 | 0.00 | 83 | 1015.5 |
| 20260508051521 | 70 | 271 | 0.0 | 0.0 | 0.00 | 0.00 | 0.00 | 83 | 1015.6 |
| 20260508051008 | 70 | 271 | 0.0 | 0.0 | 0.00 | 0.00 | 0.00 | 82 | 1015.6 |
| 20260508050508 | 71 | 271 | 0.0 | 0.0 | 0.00 | 0.00 | 0.00 | 81 | 1015.6 |
| 20260508045008 | 72 | 271 | 0.0 | 0.0 | 0.00 | 0.00 | 0.00 | 80 | 1015.7 |
| 20260508044523 | 72 | 271 | 0.0 | 0.0 | 0.00 | 0.00 | 0.00 | 79 | 1015.6 |
| 20260508044006 | 72 | 271 | 0.0 | 1.0 | 0.00 | 0.00 | 0.00 | 79 | 1015.6 |
| 20260508043014 | 73 | 270 | 0.0 | 3.0 | 0.00 | 0.00 | 0.00 | 78 | 1015.7 |
| 20260508042505 | 73 | 267 | 0.0 | 3.0 | 0.00 | 0.00 | 0.00 | 77 | 1015.8 |
| 20260508042009 | 73 | 263 | 1.0 | 3.0 | 0.00 | 0.00 | 0.00 | 77 | 1015.8 |
| 20260508041512 | 73 | 259 | 0.0 | 6.0 | 0.00 | 0.00 | 0.00 | 76 | 1015.7 |
| 20260508041007 | 74 | 263 | 1.0 | 6.0 | 0.00 | 0.00 | 0.00 | 76 | 1015.6 |
| 20260508040508 | 74 | 270 | 1.0 | 4.0 | 0.00 | 0.00 | 0.00 | 75 | 1015.7 |
| 20260508040021 | 74 | 241 | 1.0 | 7.0 | 0.00 | 0.00 | 0.00 | 75 | 1015.8 |
| 20260508035507 | 74 | 267 | 1.0 | 7.0 | 0.00 | 0.00 | 0.00 | 75 | 1015.9 |
| 20260508035010 | 74 | 278 | 2.0 | 4.0 | 0.00 | 0.00 | 0.00 | 74 | 1015.9 |
| 20260508034008 | 74 | 275 | 1.0 | 3.0 | 0.00 | 0.00 | 0.00 | 73 | 1015.6 |
| 20260508033514 | 75 | 286 | 0.0 | 3.0 | 0.00 | 0.00 | 0.00 | 73 | 1015.7 |
| 20260508033012 | 75 | 287 | 0.0 | 3.0 | 0.00 | 0.00 | 0.00 | 72 | 1015.7 |
| 20260508032512 | 75 | 290 | 1.0 | 6.0 | 0.00 | 0.00 | 0.00 | 72 | 1015.7 |
| 20260508032008 | 75 | 273 | 0.0 | 6.0 | 0.00 | 0.00 | 0.00 | 72 | 1015.6 |
| 20260508031511 | 75 | 283 | 1.0 | 6.0 | 0.00 | 0.00 | 0.00 | 72 | 1015.5 |
| 20260508031005 | 75 | 275 | 1.0 | 5.0 | 0.00 | 0.00 | 0.00 | 72 | 1015.4 |
| 20260508030508 | 75 | 253 | 1.0 | 4.0 | 0.00 | 0.00 | 0.00 | 72 | 1015.4 |
| 20260508030016 | 75 | 298 | 1.0 | 6.0 | 0.00 | 0.00 | 0.00 | 72 | 1015.5 |
| 20260508025009 | 76 | 275 | 1.0 | 6.0 | 0.00 | 0.00 | 0.00 | 71 | 1015.4 |
| 20260508024523 | 76 | 303 | 1.0 | 5.0 | 0.00 | 0.00 | 0.00 | 71 | 1015.4 |
| 20260508024008 | 76 | 304 | 1.0 | 4.0 | 0.00 | 0.00 | 0.00 | 70 | 1015.5 |
| 20260508023507 | 76 | 301 | 1.0 | 4.0 | 0.00 | 0.00 | 0.00 | 70 | 1015.5 |
| 20260508023024 | 76 | 284 | 0.0 | 3.0 | 0.00 | 0.00 | 0.00 | 69 | 1015.5 |
| 20260508022510 | 76 | 284 | 1.0 | 4.0 | 0.00 | 0.00 | 0.00 | 69 | 1015.5 |
| 20260508021522 | 77 | 257 | 2.0 | 7.0 | 0.00 | 0.00 | 0.00 | 69 | 1015.3 |
| 20260508020509 | 77 | 240 | 3.0 | 7.0 | 0.00 | 0.00 | 0.00 | 67 | 1015.3 |
| 20260508020017 | 77 | 269 | 2.0 | 7.0 | 0.00 | 0.00 | 0.00 | 66 | 1015.3 |
| 20260508015504 | 77 | 255 | 2.0 | 7.0 | 0.00 | 0.00 | 0.00 | 67 | 1015.2 |
| 20260508015007 | 77 | 272 | 3.0 | 8.0 | 0.00 | 0.00 | 0.00 | 66 | 1015.1 |
| 20260508014515 | 77 | 261 | 3.0 | 8.0 | 0.00 | 0.00 | 0.00 | 66 | 1015.1 |
| 20260508014009 | 77 | 269 | 1.0 | 7.0 | 0.00 | 0.00 | 0.00 | 66 | 1015.2 |
| 20260508013507 | 77 | 263 | 1.0 | 6.0 | 0.00 | 0.00 | 0.00 | 65 | 1015.2 |
| 20260508013023 | 77 | 271 | 2.0 | 4.0 | 0.00 | 0.00 | 0.00 | 65 | 1015.2 |
| 20260508012508 | 78 | 273 | 1.0 | 4.0 | 0.00 | 0.00 | 0.00 | 63 | 1015.0 |
| 20260508012012 | 78 | 253 | 0.0 | 4.0 | 0.00 | 0.00 | 0.00 | 62 | 1014.9 |
| 20260508011537 | 79 | 248 | 1.0 | 4.0 | 0.00 | 0.00 | 0.00 | 61 | 1015.0 |
| 20260508011005 | 79 | 255 | 1.0 | 4.0 | 0.00 | 0.00 | 0.00 | 61 | 1015.1 |
| 20260508005504 | 80 | 279 | 2.0 | 7.0 | 0.00 | 0.00 | 0.00 | 57 | 1014.8 |
| 20260508004526 | 80 | 253 | 3.0 | 8.0 | 0.00 | 0.00 | 0.00 | 56 | 1014.9 |
| 20260508004006 | 81 | 284 | 2.0 | 11.0 | 0.00 | 0.00 | 0.00 | 56 | 1014.8 |
| 20260508003506 | 81 | 258 | 3.0 | 11.0 | 0.00 | 0.00 | 0.00 | 56 | 1014.7 |
| 20260508003019 | 81 | 269 | 3.0 | 10.0 | 0.00 | 0.00 | 0.00 | 56 | 1014.7 |
| 20260508002508 | 82 | 241 | 4.0 | 9.0 | 0.00 | 0.00 | 0.00 | 54 | 1014.8 |
| 20260508002009 | 82 | 258 | 3.0 | 8.0 | 0.00 | 0.00 | 0.00 | 52 | 1014.7 |
| 20260508001519 | 82 | 274 | 4.0 | 9.0 | 0.00 | 0.00 | 0.00 | 50 | 1014.7 |
| 20260508001007 | 83 | 257 | 3.0 | 10.0 | 0.00 | 0.00 | 0.00 | 50 | 1014.6 |
| 20260508000514 | 83 | 264 | 5.0 | 10.0 | 0.00 | 0.00 | 0.00 | 49 | 1014.6 |
| 20260508000025 | 83 | 221 | 4.0 | 10.0 | 0.00 | 0.00 | 0.00 | 47 | 1014.6 |
| 20260507235508 | 84 | 226 | 4.0 | 10.0 | 0.00 | 0.00 | 0.00 | 46 | 1014.5 |
| 20260507235010 | 84 | 205 | 4.0 | 10.0 | 0.00 | 0.00 | 0.00 | 46 | 1014.7 |
| 20260507234525 | 85 | 257 | 4.0 | 11.0 | 0.00 | 0.00 | 0.00 | 45 | 1014.6 |
| 20260507234007 | 85 | 246 | 3.0 | 11.0 | 0.00 | 0.00 | 0.00 | 45 | 1014.6 |
| 20260507233505 | 85 | 242 | 3.0 | 10.0 | 0.00 | 0.00 | 0.00 | 44 | 1014.6 |
| 20260507233009 | 86 | 249 | 2.0 | 12.0 | 0.00 | 0.00 | 0.00 | 43 | 1014.5 |
| 20260507232502 | 86 | 232 | 6.0 | 12.0 | 0.00 | 0.00 | 0.00 | 42 | 1014.5 |
| 20260507232002 | 87 | 254 | 7.0 | 14.0 | 0.00 | 0.00 | 0.00 | 41 | 1014.4 |
| 20260507231506 | 87 | 227 | 7.0 | 14.0 | 0.00 | 0.00 | 0.00 | 40 | 1014.4 |
| 20260507231002 | 88 | 242 | 6.0 | 13.0 | 0.00 | 0.00 | 0.00 | 39 | 1014.3 |
| 20260507230506 | 89 | 253 | 7.0 | 12.0 | 0.00 | 0.00 | 0.00 | 39 | 1014.3 |
| 20260507230005 | 90 | 197 | 6.0 | 11.0 | 0.00 | 0.00 | 0.00 | 38 | 1014.3 |
| 20260507225506 | 91 | 240 | 7.0 | 12.0 | 0.00 | 0.00 | 0.00 | 38 | 1014.3 |
| 20260507225005 | 92 | 258 | 6.0 | 14.0 | 0.00 | 0.00 | 0.00 | 37 | 1014.3 |
| 20260507224512 | 92 | 223 | 6.0 | 14.0 | 0.00 | 0.00 | 0.00 | 38 | 1014.3 |
| 20260507224004 | 93 | 225 | 7.0 | 11.0 | 0.00 | 0.00 | 0.00 | 37 | 1014.2 |
| 20260507223503 | 93 | 238 | 6.0 | 14.0 | 0.00 | 0.00 | 0.00 | 37 | 1014.2 |
| 20260507223018 | 94 | 250 | 7.0 | 14.0 | 0.00 | 0.00 | 0.00 | 37 | 1014.1 |
| 20260507222506 | 94 | 237 | 7.0 | 13.0 | 0.00 | 0.00 | 0.00 | 37 | 1014.2 |
| 20260507222003 | 95 | 248 | 5.0 | 13.0 | 0.00 | 0.00 | 0.00 | 37 | 1014.1 |
| 20260507221506 | 95 | 270 | 6.0 | 12.0 | 0.00 | 0.00 | 0.00 | 36 | 1014.1 |
| 20260507221003 | 95 | 285 | 5.0 | 12.0 | 0.00 | 0.00 | 0.00 | 37 | 1014.1 |
| 20260507220502 | 95 | 275 | 4.0 | 12.0 | 0.00 | 0.00 | 0.00 | 37 | 1014.1 |
| 20260507220007 | 95 | 268 | 6.0 | 12.0 | 0.00 | 0.00 | 0.00 | 36 | 1014.1 |
| 20260507215503 | 95 | 235 | 2.0 | 11.0 | 0.00 | 0.00 | 0.00 | 36 | 1014.2 |
| 20260507214506 | 96 | 317 | 5.0 | 14.0 | 0.00 | 0.00 | 0.00 | 35 | 1014.3 |
| 20260507214005 | 96 | 220 | 7.0 | 14.0 | 0.00 | 0.00 | 0.00 | 35 | 1014.2 |
| 20260507213506 | 96 | 257 | 4.0 | 10.0 | 0.00 | 0.00 | 0.00 | 36 | 1014.2 |
| 20260507213006 | 96 | 251 | 4.0 | 14.0 | 0.00 | 0.00 | 0.00 | 32 | 1014.2 |
| 20260507212009 | 97 | 270 | 5.0 | 13.0 | 0.00 | 0.00 | 0.00 | 34 | 1014.3 |
| 20260507211519 | 97 | 308 | 5.0 | 14.0 | 0.00 | 0.00 | 0.00 | 31 | 1014.4 |
| 20260507211004 | 97 | 254 | 6.0 | 14.0 | 0.00 | 0.00 | 0.00 | 30 | 1014.5 |
| 20260507210509 | 97 | 294 | 2.0 | 9.0 | 0.00 | 0.00 | 0.00 | 28 | 1014.4 |
| 20260507210005 | 98 | 312 | 1.0 | 14.0 | 0.00 | 0.00 | 0.00 | 25 | 1014.5 |
| 20260507205503 | 98 | 249 | 3.0 | 14.0 | 0.00 | 0.00 | 0.00 | 24 | 1014.6 |